STARLINK-34653 (64917 NORAD) Tracking and Keplerian Element Data

This shows tracking and keplerian element data for the satellite.

Feedback or suggestion? Click here.




ElementValue
Catalog64917
NameSTARLINK-34653
Epoch Orbit2383
Epoch Day354.01681866
Epoch Year2025
RAAN358.7162
Inclination53.1609
Eccentricity0.0001633
Argument of Perigee76.7233
Mean Anonmoly283.3954
Mean Motion15.39640642
Decay Rate0.00030002
L11 64917U 25157P 25354.01681866 .00030002 00000+0 75656-3 0 9998
L22 64917 53.1609 358.7162 0001633 76.7233 283.3954 15.39640642 23836



Live tracking and technical data element details for STARLINK-34653 (NORAD 64917). STARLINK-34653 can be tracked NOW for your location showing map with azimuth and elevation plus other details from your city location.







IsCatalogInMostPopularTable: catalog: 64917, numindb: 8
Update: records affected: 1



GetName: 64917 STARLINK-34653

Hit Count: updated at: Tue, 21 Apr 2026 19:23:35 GMT